EWG8RP LIPZ-EDDK

Flight info

Callsign EWG8RP
Flight time 1h 16m
Altitude 32000
Route ROKIB DCT SUXAN DCT ARGAX DCT LADOL DCT ABUKA DCT ASKIK DCT DILUG/N0406F240 T840 GULKO
Aircraft A320/M-SDE3FGHIRWY/LB1

Departure

Time 2026-04-30 08:23
Airport Venice Marco Polo Airport (LIPZ)

Arrival

Time 2026-04-30 09:40
Airport Cologne Bonn Airport (EDDK)
Time Latitude Longitude Altitude Speed Heading
2026-04-30 08:05 45.50729 12.34450 13 ft 0 kts 223°
2026-04-30 08:15 45.50739 12.34464 12 ft 2 kts 223°
2026-04-30 08:15 45.50751 12.34480 13 ft 2 kts 217°
2026-04-30 08:15 45.50765 12.34492 16 ft 2 kts 197°
2026-04-30 08:16 45.50780 12.34496 13 ft 2 kts 169°
2026-04-30 08:16 45.50792 12.34491 14 ft 0 kts 133°
2026-04-30 08:17 45.50773 12.34521 15 ft 8 kts 133°
2026-04-30 08:18 45.50730 12.34585 13 ft 11 kts 133°
2026-04-30 08:18 45.50671 12.34679 14 ft 14 kts 131°
2026-04-30 08:18 45.50589 12.34724 15 ft 13 kts 202°
2026-04-30 08:18 45.50521 12.34645 18 ft 16 kts 222°
2026-04-30 08:19 45.50392 12.34480 19 ft 31 kts 221°
2026-04-30 08:19 45.50237 12.34279 18 ft 28 kts 222°
2026-04-30 08:19 45.50096 12.34099 16 ft 27 kts 222°
2026-04-30 08:19 45.49959 12.33921 15 ft 25 kts 223°
2026-04-30 08:20 45.49858 12.33793 15 ft 17 kts 223°
2026-04-30 08:20 45.49778 12.33690 18 ft 14 kts 219°
2026-04-30 08:20 45.49679 12.33607 19 ft 18 kts 216°
2026-04-30 08:20 45.49598 12.33516 18 ft 12 kts 196°
2026-04-30 08:21 45.49530 12.33573 18 ft 12 kts 131°
2026-04-30 08:21 45.49478 12.33657 17 ft 0 kts 131°
2026-04-30 08:22 45.49442 12.33714 17 ft 15 kts 132°
2026-04-30 08:22 45.49429 12.33797 17 ft 10 kts 42°
2026-04-30 08:22 45.49439 12.33810 15 ft 0 kts 42°
2026-04-30 08:23 45.49537 12.33936 15 ft 53 kts 41°
2026-04-30 08:23 45.49976 12.34498 14 ft 113 kts 41°
2026-04-30 08:23 45.50670 12.35440 51 ft 156 kts 49°
2026-04-30 08:23 45.51424 12.36539 703 ft 156 kts 51°
2026-04-30 08:24 45.52205 12.37603 1466 ft 155 kts 48°
2026-04-30 08:24 45.52987 12.38658 2064 ft 164 kts 52°
2026-04-30 08:24 45.53515 12.40162 2540 ft 178 kts 77°
2026-04-30 08:24 45.53535 12.41979 3193 ft 187 kts 98°
2026-04-30 08:25 45.53277 12.43839 3841 ft 194 kts 96°
2026-04-30 08:25 45.53063 12.45773 4498 ft 200 kts 94°
2026-04-30 08:25 45.52867 12.47761 5189 ft 203 kts 94°
2026-04-30 08:25 45.52675 12.49767 5892 ft 204 kts 93°
2026-04-30 08:26 45.52328 12.51748 6484 ft 217 kts 114°
2026-04-30 08:26 45.51223 12.53258 7062 ft 231 kts 154°
2026-04-30 08:26 45.49614 12.53497 7665 ft 239 kts 193°
2026-04-30 08:26 45.48047 12.52633 8294 ft 245 kts 212°
2026-04-30 08:27 45.46893 12.50870 8859 ft 247 kts 248°
2026-04-30 08:27 45.46450 12.48537 9350 ft 254 kts 271°
2026-04-30 08:27 45.46719 12.46007 9603 ft 268 kts 295°
2026-04-30 08:27 45.47374 12.43394 9961 ft 289 kts 293°
2026-04-30 08:28 45.48002 12.40615 10555 ft 299 kts 291°
2026-04-30 08:28 45.48637 12.37679 10806 ft 322 kts 291°
2026-04-30 08:28 45.49311 12.34505 11021 ft 344 kts 290°
2026-04-30 08:28 45.50007 12.31193 11583 ft 352 kts 289°
2026-04-30 08:29 45.50709 12.27871 12267 ft 356 kts 290°
2026-04-30 08:29 45.51437 12.24468 12971 ft 361 kts 289°
2026-04-30 08:29 45.52181 12.21014 13666 ft 365 kts 289°
2026-04-30 08:29 45.52935 12.17541 14347 ft 369 kts 289°
2026-04-30 08:30 45.53692 12.14075 14970 ft 371 kts 289°
2026-04-30 08:30 45.54466 12.10558 15635 ft 373 kts 290°
2026-04-30 08:30 45.55241 12.07021 16272 ft 374 kts 290°
2026-04-30 08:30 45.56018 12.03467 16908 ft 377 kts 290°
2026-04-30 08:31 45.56834 11.99892 17534 ft 378 kts 294°
2026-04-30 08:31 45.58036 11.96567 18143 ft 377 kts 306°
2026-04-30 08:31 45.59693 11.93677 18727 ft 376 kts 318°
2026-04-30 08:31 45.61702 11.91362 19252 ft 375 kts 329°
2026-04-30 08:32 45.64009 11.89609 19789 ft 376 kts 336°
2026-04-30 08:32 45.66376 11.88001 20353 ft 378 kts 336°
2026-04-30 08:32 45.68754 11.86376 20910 ft 380 kts 336°
2026-04-30 08:32 45.71143 11.84735 21461 ft 382 kts 336°
2026-04-30 08:33 45.73544 11.83086 21990 ft 384 kts 336°
2026-04-30 08:33 45.75960 11.81421 22502 ft 386 kts 336°
2026-04-30 08:33 45.78388 11.79738 23001 ft 388 kts 336°
2026-04-30 08:33 45.80796 11.78066 23481 ft 390 kts 336°
2026-04-30 08:34 45.83250 11.76363 23939 ft 393 kts 336°
2026-04-30 08:34 45.85715 11.74654 24323 ft 395 kts 336°
2026-04-30 08:34 45.88194 11.72936 24683 ft 396 kts 336°
2026-04-30 08:34 45.90683 11.71194 25061 ft 399 kts 333°
2026-04-30 08:35 45.93026 11.69007 25428 ft 404 kts 323°
2026-04-30 08:35 45.95080 11.66224 25774 ft 409 kts 314°
2026-04-30 08:35 45.96846 11.62992 26125 ft 413 kts 310°
2026-04-30 08:35 45.98584 11.59690 26467 ft 415 kts 310°
2026-04-30 08:36 46.00311 11.56411 26789 ft 417 kts 310°
2026-04-30 08:36 46.02061 11.53081 27109 ft 419 kts 310°
2026-04-30 08:36 46.03826 11.49715 27438 ft 421 kts 310°
2026-04-30 08:36 46.05598 11.46333 27763 ft 423 kts 310°
2026-04-30 08:37 46.07377 11.42937 28056 ft 425 kts 310°
2026-04-30 08:37 46.09161 11.39525 28334 ft 428 kts 309°
2026-04-30 08:37 46.10958 11.36085 28617 ft 430 kts 309°
2026-04-30 08:37 46.12742 11.32664 28900 ft 432 kts 309°
2026-04-30 08:38 46.14556 11.29181 29170 ft 434 kts 309°
2026-04-30 08:38 46.16375 11.25682 29420 ft 436 kts 309°
2026-04-30 08:38 46.18201 11.22166 29670 ft 439 kts 309°
2026-04-30 08:38 46.20034 11.18631 29898 ft 440 kts 309°
2026-04-30 08:39 46.21853 11.15122 30138 ft 442 kts 309°
2026-04-30 08:39 46.23704 11.11547 30348 ft 444 kts 309°
2026-04-30 08:39 46.25555 11.07959 30529 ft 446 kts 309°
2026-04-30 08:39 46.27407 11.04364 30779 ft 446 kts 309°
2026-04-30 08:40 46.29259 11.00772 31055 ft 445 kts 309°
2026-04-30 08:40 46.31110 10.97182 31332 ft 445 kts 309°
2026-04-30 08:40 46.32960 10.93587 31606 ft 444 kts 309°
2026-04-30 08:40 46.34806 10.89994 31885 ft 444 kts 309°
2026-04-30 08:41 46.36624 10.86449 32151 ft 444 kts 309°
2026-04-30 08:41 46.40282 10.79292 32264 ft 438 kts 309°
2026-04-30 08:42 46.43889 10.72224 32262 ft 437 kts 310°
2026-04-30 08:42 46.47512 10.65121 32266 ft 438 kts 310°
2026-04-30 08:43 46.51129 10.58003 32281 ft 439 kts 310°
2026-04-30 08:43 46.54751 10.50858 32281 ft 439 kts 310°
2026-04-30 08:44 46.58231 10.43600 32272 ft 441 kts 306°
2026-04-30 08:44 46.61416 10.35959 32273 ft 442 kts 304°
2026-04-30 08:45 46.64514 10.28250 32270 ft 443 kts 304°
2026-04-30 08:45 46.67683 10.20542 32278 ft 443 kts 305°
2026-04-30 08:46 46.70902 10.12867 32268 ft 444 kts 306°
2026-04-30 08:46 46.74108 10.05214 32273 ft 445 kts 305°
2026-04-30 08:47 46.77318 9.97483 32266 ft 446 kts 305°
2026-04-30 08:47 46.80529 9.89717 32253 ft 446 kts 305°
2026-04-30 08:48 46.83724 9.81973 32236 ft 447 kts 305°
2026-04-30 08:48 46.86934 9.74166 32220 ft 448 kts 305°
2026-04-30 08:49 46.90141 9.66337 32209 ft 449 kts 305°
2026-04-30 08:49 46.93328 9.58559 32190 ft 448 kts 306°
2026-04-30 08:50 46.96540 9.50702 32191 ft 450 kts 305°
2026-04-30 08:50 46.99747 9.42814 32185 ft 450 kts 305°
2026-04-30 08:51 47.03218 9.35338 32185 ft 442 kts 318°
2026-04-30 08:51 47.08008 9.29955 32186 ft 430 kts 338°
2026-04-30 08:52 47.13600 9.27222 32192 ft 421 kts 353°
2026-04-30 08:52 47.19347 9.25497 32203 ft 422 kts 353°
2026-04-30 08:53 47.25061 9.23742 32212 ft 422 kts 353°
2026-04-30 08:53 47.30827 9.21968 32225 ft 423 kts 353°
2026-04-30 08:54 47.36600 9.20203 32238 ft 423 kts 353°
2026-04-30 08:54 47.42329 9.18459 32244 ft 423 kts 353°
2026-04-30 08:55 47.48098 9.16692 32251 ft 423 kts 353°
2026-04-30 08:55 47.53871 9.14912 32251 ft 424 kts 353°
2026-04-30 08:56 47.59653 9.13125 32251 ft 424 kts 353°
2026-04-30 08:56 47.65427 9.11349 32253 ft 424 kts 353°
2026-04-30 08:57 47.71200 9.09564 32250 ft 424 kts 353°
2026-04-30 08:57 47.76951 9.07768 32253 ft 425 kts 353°
2026-04-30 08:58 47.82743 9.05965 32252 ft 425 kts 353°
2026-04-30 08:58 47.88547 9.04162 32262 ft 426 kts 353°
2026-04-30 08:59 47.94324 9.02366 32260 ft 426 kts 353°
2026-04-30 08:59 48.00132 9.00539 32270 ft 426 kts 353°
2026-04-30 09:00 48.05912 8.98728 32269 ft 426 kts 353°
2026-04-30 09:00 48.11727 8.96899 32271 ft 427 kts 353°
2026-04-30 09:01 48.17545 8.95086 32280 ft 426 kts 354°
2026-04-30 09:01 48.23365 8.93742 32280 ft 424 kts 357°
2026-04-30 09:02 48.32166 8.92129 32282 ft 425 kts 357°
2026-04-30 09:02 48.38033 8.90962 32296 ft 425 kts 356°
2026-04-30 09:03 48.43904 8.89731 32301 ft 426 kts 356°
2026-04-30 09:03 48.49735 8.88501 32310 ft 426 kts 356°
2026-04-30 09:04 48.55615 8.87265 32321 ft 426 kts 356°
2026-04-30 09:04 48.61491 8.86036 32324 ft 426 kts 356°
2026-04-30 09:05 48.67329 8.84819 32329 ft 426 kts 356°
2026-04-30 09:05 48.73205 8.83587 32326 ft 426 kts 356°
2026-04-30 09:06 48.79082 8.82339 32335 ft 426 kts 356°
2026-04-30 09:06 48.84919 8.81104 32320 ft 426 kts 356°
2026-04-30 09:07 48.89839 8.80055 32319 ft 425 kts 356°
2026-04-30 09:07 48.95668 8.78822 32324 ft 425 kts 356°
2026-04-30 09:08 49.01533 8.77585 32329 ft 425 kts 356°
2026-04-30 09:08 49.07404 8.76330 32333 ft 425 kts 356°
2026-04-30 09:09 49.13238 8.75081 32342 ft 425 kts 356°
2026-04-30 09:09 49.19104 8.73831 32350 ft 425 kts 356°
2026-04-30 09:10 49.24973 8.72574 32370 ft 425 kts 356°
2026-04-30 09:10 49.30841 8.71293 32381 ft 425 kts 356°
2026-04-30 09:11 49.36661 8.70044 32386 ft 425 kts 356°
2026-04-30 09:11 49.42524 8.68792 32393 ft 425 kts 356°
2026-04-30 09:12 49.48388 8.67512 32393 ft 425 kts 356°
2026-04-30 09:12 49.54238 8.66095 32388 ft 425 kts 355°
2026-04-30 09:13 49.60046 8.64620 32389 ft 425 kts 355°
2026-04-30 09:13 49.65889 8.63147 32391 ft 425 kts 355°
2026-04-30 09:14 49.71736 8.61710 32396 ft 424 kts 355°
2026-04-30 09:14 49.77540 8.60278 32410 ft 425 kts 355°
2026-04-30 09:15 49.83381 8.58826 32417 ft 424 kts 355°
2026-04-30 09:15 49.89215 8.57376 32395 ft 424 kts 355°
2026-04-30 09:16 49.92142 8.56650 31820 ft 424 kts 355°
2026-04-30 09:16 49.95006 8.55935 31249 ft 420 kts 355°
2026-04-30 09:16 49.97876 8.55215 30675 ft 416 kts 355°
2026-04-30 09:16 50.00727 8.54497 30032 ft 413 kts 355°
2026-04-30 09:17 50.03545 8.53775 29494 ft 408 kts 353°
2026-04-30 09:17 50.06285 8.52613 28925 ft 409 kts 345°
2026-04-30 09:17 50.08920 8.50878 28345 ft 408 kts 341°
2026-04-30 09:17 50.11473 8.49116 27782 ft 405 kts 341°
2026-04-30 09:18 50.14044 8.47336 27230 ft 402 kts 341°
2026-04-30 09:18 50.16595 8.45569 26647 ft 399 kts 341°
2026-04-30 09:18 50.19131 8.43819 26109 ft 397 kts 341°
2026-04-30 09:18 50.21648 8.42079 25579 ft 394 kts 341°
2026-04-30 09:19 50.24150 8.40347 25061 ft 392 kts 341°
2026-04-30 09:19 50.26606 8.38643 24560 ft 389 kts 341°
2026-04-30 09:19 50.29077 8.36929 24083 ft 387 kts 341°
2026-04-30 09:19 50.31533 8.35222 23545 ft 384 kts 341°
2026-04-30 09:20 50.33965 8.33524 23086 ft 380 kts 341°
2026-04-30 09:20 50.36372 8.31836 22639 ft 377 kts 341°
2026-04-30 09:20 50.38757 8.30161 22199 ft 373 kts 341°
2026-04-30 09:20 50.41069 8.28475 21777 ft 371 kts 336°
2026-04-30 09:21 50.43277 8.26368 21344 ft 371 kts 332°
2026-04-30 09:21 50.45453 8.24196 20895 ft 368 kts 332°
2026-04-30 09:21 50.47609 8.22032 20452 ft 366 kts 332°
2026-04-30 09:21 50.49748 8.19882 19999 ft 365 kts 332°
2026-04-30 09:22 50.51880 8.17733 19539 ft 364 kts 332°
2026-04-30 09:22 50.54009 8.15583 19088 ft 363 kts 332°
2026-04-30 09:22 50.56136 8.13440 18605 ft 363 kts 332°
2026-04-30 09:22 50.58233 8.11325 18122 ft 362 kts 332°
2026-04-30 09:23 50.60353 8.09183 17661 ft 360 kts 332°
2026-04-30 09:23 50.62453 8.07059 17204 ft 358 kts 332°
2026-04-30 09:23 50.64545 8.04943 16752 ft 357 kts 332°
2026-04-30 09:23 50.66631 8.02830 16302 ft 356 kts 331°
2026-04-30 09:24 50.68719 8.00712 15856 ft 356 kts 331°
2026-04-30 09:24 50.70777 7.98614 15412 ft 356 kts 331°
2026-04-30 09:24 50.72854 7.96497 14960 ft 355 kts 331°
2026-04-30 09:24 50.74869 7.94205 14517 ft 359 kts 322°
2026-04-30 09:25 50.76587 7.91326 14115 ft 362 kts 310°
2026-04-30 09:25 50.78055 7.88079 13740 ft 362 kts 308°
2026-04-30 09:25 50.79511 7.84843 13378 ft 360 kts 308°
2026-04-30 09:25 50.80947 7.81655 13028 ft 359 kts 308°
2026-04-30 09:26 50.82391 7.78448 12668 ft 357 kts 308°
2026-04-30 09:26 50.83836 7.75239 12309 ft 356 kts 308°
2026-04-30 09:26 50.85265 7.72058 11956 ft 354 kts 308°
2026-04-30 09:26 50.86687 7.68885 11601 ft 352 kts 308°
2026-04-30 09:27 50.88085 7.65760 11256 ft 351 kts 307°
2026-04-30 09:27 50.89490 7.62608 10900 ft 349 kts 308°
2026-04-30 09:27 50.90857 7.59530 10735 ft 332 kts 307°
2026-04-30 09:27 50.92148 7.56618 10441 ft 316 kts 308°
2026-04-30 09:28 50.93401 7.53802 10065 ft 308 kts 308°
2026-04-30 09:28 50.94637 7.51031 9944 ft 309 kts 308°
2026-04-30 09:28 50.95882 7.48240 9792 ft 308 kts 308°
2026-04-30 09:28 50.97100 7.45502 9668 ft 308 kts 308°
2026-04-30 09:29 50.98335 7.42725 9407 ft 307 kts 308°
2026-04-30 09:29 50.99559 7.39954 9121 ft 306 kts 308°
2026-04-30 09:29 51.00780 7.37183 8816 ft 305 kts 307°
2026-04-30 09:29 51.01986 7.34462 8520 ft 303 kts 308°
2026-04-30 09:30 51.03216 7.31692 8221 ft 302 kts 308°
2026-04-30 09:30 51.04381 7.28969 7921 ft 302 kts 302°
2026-04-30 09:30 51.05206 7.25896 7653 ft 300 kts 286°
2026-04-30 09:30 51.05738 7.22743 7523 ft 289 kts 286°
2026-04-30 09:31 51.06253 7.19723 7390 ft 277 kts 286°
2026-04-30 09:31 51.06762 7.16793 7102 ft 274 kts 286°
2026-04-30 09:31 51.07262 7.13914 6763 ft 273 kts 286°
2026-04-30 09:31 51.07764 7.11009 6450 ft 272 kts 285°
2026-04-30 09:32 51.08260 7.08120 6100 ft 271 kts 285°
2026-04-30 09:32 51.08756 7.05235 5750 ft 270 kts 286°
2026-04-30 09:32 51.09243 7.02364 5429 ft 268 kts 282°
2026-04-30 09:32 51.09388 6.99422 5067 ft 265 kts 263°
2026-04-30 09:33 51.09102 6.96537 4764 ft 263 kts 256°
2026-04-30 09:33 51.08654 6.93748 4450 ft 258 kts 238°
2026-04-30 09:33 51.07591 6.91599 4210 ft 241 kts 209°
2026-04-30 09:33 51.06152 6.90519 4090 ft 219 kts 184°
2026-04-30 09:34 51.04714 6.90424 3982 ft 198 kts 169°
2026-04-30 09:34 51.03459 6.90837 3940 ft 179 kts 151°
2026-04-30 09:34 51.02447 6.91903 3747 ft 172 kts 134°
2026-04-30 09:34 51.01573 6.93188 3574 ft 170 kts 134°
2026-04-30 09:35 51.00710 6.94452 3403 ft 164 kts 134°
2026-04-30 09:35 50.99883 6.95660 3284 ft 158 kts 134°
2026-04-30 09:35 50.99086 6.96825 3194 ft 154 kts 134°
2026-04-30 09:35 50.98300 6.97975 3025 ft 154 kts 133°
2026-04-30 09:36 50.97515 6.99123 2837 ft 154 kts 134°
2026-04-30 09:36 50.96739 7.00254 2624 ft 151 kts 134°
2026-04-30 09:36 50.95998 7.01331 2443 ft 135 kts 133°
2026-04-30 09:36 50.95319 7.02321 2244 ft 129 kts 133°
2026-04-30 09:37 50.94658 7.03262 2062 ft 127 kts 132°
2026-04-30 09:37 50.94014 7.04207 1947 ft 126 kts 131°
2026-04-30 09:37 50.93371 7.05158 1767 ft 126 kts 133°
2026-04-30 09:37 50.92724 7.06093 1629 ft 127 kts 132°
2026-04-30 09:38 50.92079 7.07024 1413 ft 127 kts 132°
2026-04-30 09:38 50.91441 7.07965 1192 ft 125 kts 133°
2026-04-30 09:38 50.90806 7.08891 982 ft 124 kts 134°
2026-04-30 09:38 50.90162 7.09825 810 ft 126 kts 133°
2026-04-30 09:39 50.89524 7.10758 678 ft 127 kts 134°
2026-04-30 09:39 50.88867 7.11710 564 ft 125 kts 134°
2026-04-30 09:39 50.88215 7.12654 351 ft 125 kts 135°
2026-04-30 09:39 50.87591 7.13565 242 ft 113 kts 137°
2026-04-30 09:40 50.87125 7.14248 250 ft 67 kts 137°
2026-04-30 09:40 50.86902 7.14568 260 ft 27 kts 137°
2026-04-30 09:40 50.86779 7.14751 267 ft 22 kts 138°
2026-04-30 09:40 50.86671 7.14902 272 ft 20 kts 137°
2026-04-30 09:41 50.86553 7.15080 277 ft 28 kts 135°
2026-04-30 09:41 50.86382 7.15265 284 ft 29 kts 156°
2026-04-30 09:41 50.86208 7.15338 291 ft 19 kts 167°
2026-04-30 09:41 50.86092 7.15338 290 ft 17 kts 208°
2026-04-30 09:42 50.86045 7.15181 290 ft 17 kts 277°
2026-04-30 09:42 50.86113 7.15036 287 ft 17 kts 317°
2026-04-30 09:42 50.86226 7.14873 282 ft 30 kts 317°
2026-04-30 09:42 50.86380 7.14649 273 ft 31 kts 317°
2026-04-30 09:43 50.86542 7.14414 263 ft 33 kts 317°
2026-04-30 09:43 50.86699 7.14188 258 ft 21 kts 316°
2026-04-30 09:43 50.86808 7.14084 255 ft 17 kts 324°
2026-04-30 09:43 50.86894 7.13963 253 ft 17 kts 316°
2026-04-30 09:44 50.86993 7.13814 244 ft 21 kts 318°
2026-04-30 09:44 50.87107 7.13655 240 ft 23 kts 317°
2026-04-30 09:44 50.87237 7.13468 235 ft 26 kts 318°
2026-04-30 09:44 50.87372 7.13273 232 ft 26 kts 317°
2026-04-30 09:45 50.87499 7.13091 232 ft 24 kts 318°
2026-04-30 09:45 50.87614 7.12923 232 ft 22 kts 317°
2026-04-30 09:45 50.87723 7.12765 232 ft 21 kts 317°
2026-04-30 09:45 50.87828 7.12625 232 ft 19 kts 333°
2026-04-30 09:46 50.87949 7.12620 232 ft 16 kts 350°
2026-04-30 09:46 50.88025 7.12507 234 ft 15 kts 299°
2026-04-30 09:46 50.88077 7.12371 232 ft 14 kts 304°
2026-04-30 09:46 50.88130 7.12253 232 ft 12 kts 306°
2026-04-30 09:47 50.88148 7.12143 233 ft 10 kts 235°
2026-04-30 09:47 50.88106 7.12094 232 ft 2 kts 216°
2026-04-30 09:47 50.88105 7.12093 232 ft 0 kts 216°